Wind_Speed
3 4 2 1 2 4 9 8 7 7 10 8 7 8 8 7 6 5 5 4 6 7 7 6 5 6 6 7 8 9 10 11 11 12 12 12 11 11 12 14 14 14 15 16 16 15 14 13 13
4 5 1 2 1 3 6 6 7 7 9 10 9 8 8 8 7 6 5 4 3 4 5 5 5 6 5 6 7 7 8 9 10 10 10 9 9 9 10 11 11 12 12 13 13 13 13 12 11
7 8 6 3 2 2 1 3 4 5 7 10 12 12 10 9 8 7 5 5 4 4 4 3 3 3 4 4 5 6 6 6 6 6 6 6 6 6 7 8 8 9 10 11 12 11 10 10 10
10 12 12 9 5 6 4 1 4 3 4 5 7 10 11 10 8 6 7 6 5 4 4 4 5 5 5 6 6 6 6 5 5 4 4 4 4 4 5 6 6 7 8 9 11 11 10 8 7
11 10 10 8 7 9 9 4 1 1 2 7 8 8 10 10 10 10 9 9 8 7 6 7 7 7 6 6 5 5 5 4 4 4 4 5 5 6 6 6 7 9 10 10 11 11 10 8 6
14 14 10 12 13 10 7 5 3 2 1 8 9 8 9 9 9 9 9 9 9 9 9 8 8 9 8 7 7 6 6 4 4 4 3 5 6 7 8 9 11 14 16 16 15 13 12 11 9
15 18 18 17 15 15 13 8 3 4 2 6 7 6 5 6 6 6 6 6 7 8 8 9 9 9 9 9 9 9 8 6 5 5 6 8 11 12 14 15 16 18 19 18 16 15 12 11 9
21 21 23 22 19 20 17 11 6 7 3 5 9 6 2 4 6 6 7 7 7 8 9 9 9 9 10 11 11 11 12 10 10 12 13 14 16 18 19 19 19 19 20 20 19 18 14 13 11
28 25 25 23 19 19 14 12 10 9 8 6 4 4 4 8 10 11 12 12 12 12 12 12 13 13 14 15 16 17 17 17 18 18 19 19 19 20 21 22 23 23 23 23 23 22 20 17 16
30 30 27 24 20 18 14 16 13 9 8 6 5 6 8 11 16 17 17 18 20 20 19 19 18 18 18 19 20 22 22 22 23 24 25 25 25 24 24 26 28 29 28 27 26 26 24 22 20
29 31 30 26 20 18 20 20 15 10 11 11 10 12 15 17 19 22 23 24 25 25 25 25 25 24 25 26 27 28 28 29 29 29 29 30 30 29 30 31 32 33 32 32 31 31 30 28 27
25 32 30 26 22 20 21 21 19 16 14 15 15 18 22 24 26 27 27 28 28 28 28 28 28 29 31 32 33 33 33 34 34 35 34 34 35 35 35 35 36 35 36 37 37 35 35 33 32
24 30 30 27 25 23 24 26 25 22 19 19 21 24 27 31 33 32 30 29 29 30 31 31 33 33 34 35 36 38 38 38 38 38 38 39 39 39 39 39 38 37 40 41 41 40 39 37 37
28 27 26 25 26 26 27 29 28 26 27 28 29 31 34 36 36 35 30 28 28 28 30 31 34 36 38 38 39 42 44 44 43 42 43 42 42 42 43 40 37 37 41 45 42 40 40 37 41
32 30 28 27 29 30 31 32 31 31 32 35 36 37 38 39 36 34 30 29 26 25 26 27 30 33 35 38 39 39 41 43 42 42 42 40 39 41 43 34 33 34 40 40 36 37 39 36 41
35 34 33 34 35 34 35 33 34 36 37 39 39 40 39 39 34 34 33 32 30 28 26 26 28 31 33 36 37 38 39 38 37 38 36 35 35 35 33 29 33 38 44 42 39 38 40 39 43
38 37 37 37 39 38 37 35 35 36 38 39 39 38 37 31 31 34 37 38 33 28 25 25 27 27 29 29 32 35 37 38 39 38 36 36 36 36 36 35 34 37 41 43 45 44 43 42 39
34 37 38 38 39 38 36 34 32 33 34 34 35 34 26 30 34 38 41 37 31 26 22 22 24 25 27 27 26 28 32 35 38 39 38 38 38 37 37 38 38 40 41 41 42 43 41 38 34
29 32 32 33 35 34 31 30 30 28 29 29 30 31 32 35 36 40 37 32 28 24 23 24 27 28 28 28 27 28 30 31 34 36 36 37 37 36 36 36 36 37 36 35 35 36 37 36 36
29 30 30 30 31 29 28 30 32 29 28 27 29 33 35 37 39 37 29 24 23 23 24 25 24 23 24 25 28 30 30 32 33 35 37 37 36 36 35 35 34 33 33 32 33 33 33 34 34
26 30 31 30 29 29 27 29 30 32 32 32 34 35 35 36 37 32 22 22 26 26 26 25 22 22 24 24 26 28 29 30 31 32 34 37 38 39 38 39 38 37 36 34 33 33 33 32 32
20 24 27 28 29 31 29 32 32 34 36 37 37 36 34 34 31 23 20 26 29 26 20 21 23 26 26 25 24 24 25 27 29 31 32 34 36 39 41 41 41 40 39 37 35 34 34 33 31
18 19 22 22 25 28 32 37 37 37 39 39 38 35 30 27 23 23 24 27 27 21 19 21 22 22 21 21 20 20 22 23 25 29 33 35 36 37 38 41 43 42 40 38 36 36 35 33 31
12 14 16 16 18 20 23 28 31 32 33 33 31 25 22 22 22 26 27 25 24 22 23 23 21 21 20 20 19 21 22 24 26 28 30 34 37 37 38 39 41 42 41 40 38 37 35 34 34
10 12 14 15 16 17 20 21 20 21 22 23 22 21 23 25 27 27 23 22 24 25 24 23 23 24 23 24 25 25 25 26 27 28 29 33 35 37 38 37 38 40 41 40 40 39 38 36 36
11 12 14 16 16 16 19 18 16 17 18 18 20 23 25 26 24 21 22 24 26 25 25 24 25 25 24 25 26 27 28 28 29 30 31 33 34 36 35 35 35 37 39 39 39 39 40 39 39
10 11 14 15 16 17 16 17 17 17 17 18 23 24 24 20 18 19 22 26 26 27 28 28 27 28 28 27 28 30 29 29 30 31 33 32 33 37 35 33 33 34 36 38 39 39 39 40 40
9 11 13 17 19 18 16 17 18 19 18 21 24 23 21 21 24 27 28 28 29 31 33 34 33 32 31 32 32 32 34 32 31 32 34 34 33 35 36 34 34 34 33 35 37 37 38 38 39
12 13 15 17 20 22 21 18 17 20 25 27 28 29 32 32 33 35 37 37 38 39 40 42 42 38 33 30 32 35 39 40 37 35 35 34 33 34 36 35 34 33 34 33 33 33 34 35 36
16 19 21 23 24 25 28 28 24 25 27 29 32 35 37 38 39 42 44 44 45 46 47 47 48 47 44 40 38 39 41 43 44 39 37 35 35 34 34 33 32 31 30 29 28 29 30 31 32
Wind_Direction
105 95 30 61 101 94 72 54 37 43 68 78 89 73 61 62 69 57 47 50 69 78 76 62 51 48 42 47 48 38 30 29 31 34 39 43 41 36 36 34 33 35 40 43 45 41 37 40 40
183 157 131 129 112 103 74 62 48 34 29 21 21 21 28 34 38 42 36 39 54 72 70 63 52 53 48 46 45 38 26 21 21 24 29 38 40 33 33 33 29 23 21 24 29 31 30 32 37
214 207 203 207 222 204 90 79 65 36 25 15 2 352 355 14 18 14 3 5 13 29 32 35 26 32 28 17 8 360 360 12 22 23 23 35 38 28 18 20 18 11 4 359 0 4 12 17 21
223 233 236 237 246 249 257 199 103 72 70 53 15 346 342 355 355 349 342 341 342 351 349 328 320 330 344 348 346 339 341 354 5 6 358 357 354 347 345 350 355 349 345 343 342 344 346 350 359
224 228 226 234 237 258 278 280 251 230 129 61 34 5 350 344 336 335 334 331 330 331 338 335 332 341 346 342 335 328 325 332 333 333 327 323 318 318 323 322 321 321 320 323 324 327 329 326 319
218 228 222 221 215 230 260 293 293 295 129 53 34 14 2 357 344 327 321 326 331 330 329 330 339 342 340 331 323 318 315 316 313 314 308 311 312 313 317 319 316 314 310 308 307 308 316 321 317
220 236 235 237 238 246 253 269 277 237 172 54 33 16 2 11 5 342 323 323 324 321 320 321 325 329 329 324 320 319 313 303 295 298 301 307 310 308 309 306 304 304 305 304 301 300 303 308 309
220 239 245 247 251 257 264 272 271 237 198 73 68 49 359 350 342 339 322 310 306 308 312 311 307 309 310 313 313 313 312 300 294 298 302 301 301 301 303 301 298 299 300 299 298 298 300 298 295
223 233 245 254 255 264 277 287 290 255 213 149 114 29 350 327 318 310 304 301 297 292 288 287 290 293 296 298 297 298 300 297 293 294 296 297 296 295 297 297 295 294 293 291 293 293 297 297 292
219 227 240 254 263 272 275 286 289 257 248 220 215 291 313 313 316 310 297 289 287 283 276 272 277 283 288 289 290 290 291 290 290 290 291 291 289 288 291 293 293 293 290 287 292 293 288 288 284
217 224 234 246 256 264 273 285 286 267 264 276 281 290 303 305 305 301 296 291 286 283 276 269 269 273 277 280 281 282 283 285 286 286 288 288 287 284 285 290 289 286 283 282 286 286 282 279 277
221 225 236 245 246 251 268 276 284 282 282 289 298 303 302 299 295 296 293 287 286 285 281 277 275 272 270 270 272 274 275 277 280 283 284 283 283 283 284 284 282 279 275 273 273 274 274 274 273
227 228 237 247 253 254 256 266 277 284 288 289 292 292 290 290 294 294 292 286 281 280 281 280 277 273 271 271 273 275 275 275 277 279 279 279 279 279 278 278 278 274 269 264 263 264 264 265 265
236 236 238 248 255 257 260 264 269 276 282 284 284 285 286 287 290 291 288 282 283 284 283 279 276 275 275 275 276 278 279 279 279 279 279 279 280 279 275 272 273 274 272 267 257 256 258 261 263
240 242 244 246 247 248 255 265 273 277 279 279 280 282 282 285 289 292 294 294 295 290 285 279 274 273 276 278 278 279 280 281 283 282 281 282 283 283 282 284 280 281 284 288 287 277 277 272 272
238 243 247 249 251 252 257 264 269 273 274 275 276 278 283 287 292 295 299 305 306 299 289 282 276 271 270 272 276 279 281 285 284 282 283 281 280 282 282 280 280 281 282 289 294 291 288 280 279
240 243 248 253 257 260 262 265 265 267 267 267 271 278 284 292 298 296 298 300 302 296 287 285 283 276 273 275 278 279 281 286 286 284 284 281 280 282 284 282 279 279 281 286 289 290 288 288 284
238 243 247 251 257 262 266 267 264 260 262 267 272 277 284 292 293 295 299 300 300 294 286 286 294 282 280 286 292 292 290 292 292 292 292 290 287 284 282 282 279 277 277 280 282 285 286 287 284
234 241 245 249 254 257 257 259 261 257 261 265 269 276 287 293 295 300 303 299 296 292 291 296 300 296 290 282 293 300 298 297 297 295 293 291 288 285 281 280 281 280 279 280 281 283 281 280 276
233 236 238 240 246 253 251 249 254 259 265 269 276 286 294 298 301 303 302 293 297 300 300 301 298 297 297 297 297 300 300 299 299 298 297 294 290 287 284 282 280 279 279 282 285 285 281 277 275
239 239 237 235 236 245 254 262 268 272 275 277 283 290 296 301 303 301 293 296 300 302 307 307 307 308 309 311 312 311 310 307 306 304 301 296 290 285 282 280 279 279 279 279 280 280 278 275 273
252 253 253 252 250 248 256 258 259 265 271 277 283 288 294 297 294 291 295 297 300 304 306 306 311 311 312 315 316 318 319 317 317 314 308 304 298 289 282 278 276 276 276 276 276 278 277 276 275
276 273 270 269 268 262 257 261 262 262 268 275 280 286 289 285 284 286 291 295 296 299 300 300 297 297 301 304 310 317 319 321 322 323 319 313 306 299 290 282 276 274 275 276 275 278 278 276 276
288 284 280 282 283 281 274 270 269 266 268 274 280 283 281 281 288 295 295 294 293 292 289 288 287 290 295 296 300 305 308 314 319 320 323 320 314 307 297 286 279 274 273 273 274 275 277 277 273
300 301 300 294 290 291 290 288 285 279 279 281 282 283 281 281 288 294 293 287 278 276 276 279 285 290 291 289 292 296 301 305 311 318 322 325 322 312 303 294 282 275 273 274 274 274 274 273 271
309 302 298 294 293 293 295 295 289 280 277 280 279 279 282 287 291 287 275 268 270 273 275 281 290 291 290 292 298 303 308 309 312 320 326 327 328 321 309 299 286 275 271 273 274 273 271 270 268
304 301 292 285 287 290 291 297 292 288 285 283 281 281 285 294 290 276 267 267 271 278 286 294 300 306 308 308 309 309 311 314 317 321 322 326 332 329 319 305 295 285 275 272 272 272 269 267 265
317 306 296 292 296 296 298 293 287 290 286 282 282 285 289 295 295 290 285 285 288 293 300 308 312 310 310 311 312 311 309 312 315 314 314 318 324 328 327 313 300 295 289 280 274 271 268 265 263
322 313 305 301 305 306 306 303 294 288 290 292 293 293 293 293 296 297 296 297 299 303 308 312 310 307 304 303 306 307 307 309 311 311 310 310 315 325 329 321 305 300 298 290 283 277 270 266 265
325 322 316 310 310 310 309 309 305 296 287 286 289 291 292 294 299 300 300 302 303 304 305 306 307 307 304 300 304 306 304 304 306 307 305 306 308 317 325 325 312 308 303 296 290 281 272 269 269
Height
5921 5922 5921 5921 5921 5921 5921 5922 5921 5921 5921 5922 5921 5922 5923 5923 5923 5925 5924 5922 5922 5921 5921 5921 5921 5921 5920 5918 5917 5917 5915 5914 5913 5913 5912 5911 5910 5909 5909 5908 5908 5907 5907 5906 5906 5905 5904 5903 5902
5922 5924 5924 5924 5923 5922 5923 5923 5922 5922 5922 5923 5923 5923 5924 5924 5923 5923 5923 5923 5922 5921 5921 5920 5921 5920 5919 5918 5917 5916 5915 5914 5913 5913 5912 5911 5910 5909 5909 5908 5908 5907 5907 5906 5905 5905 5904 5903 5903
5922 5924 5926 5926 5925 5926 5926 5924 5924 5925 5924 5924 5925 5925 5925 5924 5923 5922 5922 5922 5922 5922 5921 5921 5921 5919 5918 5917 5916 5915 5914 5913 5912 5911 5911 5910 5909 5909 5909 5908 5907 5907 5906 5905 5905 5904 5903 5903 5903
5922 5923 5925 5926 5926 5926 5927 5926 5926 5927 5926 5925 5925 5924 5924 5923 5923 5922 5922 5921 5921 5921 5921 5920 5920 5918 5917 5916 5915 5915 5914 5913 5912 5911 5910 5909 5909 5908 5907 5907 5906 5906 5905 5905 5904 5903 5902 5901 5901
5922 5922 5923 5924 5925 5925 5926 5928 5928 5927 5927 5926 5925 5923 5923 5923 5922 5922 5922 5921 5921 5921 5920 5920 5919 5917 5915 5914 5913 5912 5912 5911 5910 5910 5909 5908 5907 5907 5906 5905 5904 5904 5904 5903 5902 5901 5900 5899 5898
5921 5921 5922 5922 5923 5925 5926 5927 5928 5927 5927 5926 5924 5924 5923 5923 5922 5922 5921 5921 5920 5921 5920 5919 5918 5918 5916 5914 5913 5911 5910 5909 5909 5908 5908 5907 5907 5906 5905 5904 5903 5902 5902 5901 5900 5899 5897 5896 5896
5920 5919 5920 5920 5922 5923 5925 5926 5926 5926 5926 5925 5924 5923 5923 5922 5922 5922 5921 5920 5920 5920 5919 5918 5917 5917 5916 5914 5913 5912 5910 5909 5908 5907 5907 5907 5906 5905 5904 5903 5901 5900 5899 5898 5897 5896 5895 5894 5893
5918 5917 5917 5919 5920 5921 5923 5925 5925 5925 5924 5924 5923 5923 5922 5922 5922 5921 5920 5920 5919 5919 5918 5917 5916 5914 5914 5913 5912 5910 5909 5908 5908 5907 5906 5906 5905 5904 5902 5901 5899 5897 5895 5895 5894 5893 5893 5892 5891
5914 5915 5914 5916 5919 5919 5921 5923 5924 5923 5923 5924 5924 5923 5922 5921 5921 5921 5919 5918 5917 5916 5915 5914 5913 5912 5910 5910 5909 5908 5907 5906 5906 5904 5903 5902 5901 5901 5900 5898 5896 5894 5892 5891 5891 5890 5891 5891 5890
5911 5912 5913 5914 5916 5916 5917 5919 5920 5921 5922 5924 5924 5923 5921 5920 5918 5917 5916 5915 5914 5913 5912 5911 5909 5908 5906 5905 5905 5905 5904 5903 5903 5901 5900 5898 5897 5897 5896 5894 5892 5890 5888 5887 5887 5886 5886 5887 5886
5907 5908 5910 5913 5913 5912 5912 5914 5915 5917 5919 5920 5922 5921 5920 5919 5916 5914 5913 5912 5910 5909 5908 5906 5905 5904 5903 5901 5900 5899 5899 5898 5898 5896 5895 5893 5892 5891 5889 5888 5886 5884 5882 5881 5880 5879 5879 5880 5880
5906 5905 5907 5909 5911 5911 5909 5909 5911 5913 5915 5916 5917 5917 5916 5915 5913 5912 5910 5907 5905 5904 5902 5901 5899 5897 5896 5894 5892 5891 5890 5890 5890 5889 5888 5887 5885 5884 5882 5881 5879 5877 5875 5872 5869 5870 5870 5871 5871
5903 5903 5905 5907 5909 5910 5908 5907 5908 5910 5911 5911 5912 5912 5912 5910 5908 5906 5904 5902 5899 5896 5894 5893 5891 5890 5888 5887 5885 5883 5883 5883 5882 5882 5880 5879 5878 5876 5873 5872 5870 5869 5864 5860 5860 5859 5858 5860 5860
5898 5900 5902 5903 5904 5905 5905 5903 5905 5907 5907 5906 5906 5906 5905 5903 5900 5899 5897 5895 5893 5891 5888 5885 5882 5880 5879 5878 5877 5876 5875 5875 5875 5873 5870 5869 5868 5866 5863 5861 5860 5858 5854 5849 5846 5845 5845 5848 5850
5893 5895 5897 5898 5897 5898 5899 5900 5902 5902 5902 5900 5899 5898 5897 5895 5893 5891 5888 5887 5886 5885 5882 5880 5876 5874 5871 5870 5870 5868 5866 5865 5865 5861 5859 5858 5858 5857 5854 5853 5852 5849 5848 5846 5845 5842 5842 5841 5841
5887 5889 5891 5891 5891 5894 5897 5899 5899 5897 5896 5893 5891 5890 5889 5888 5886 5883 5881 5880 5879 5877 5875 5873 5870 5868 5865 5863 5862 5861 5858 5856 5854 5852 5850 5850 5848 5848 5847 5847 5845 5842 5837 5836 5836 5835 5837 5835 5834
5881 5883 5884 5885 5886 5888 5890 5893 5892 5890 5889 5886 5884 5884 5883 5881 5879 5876 5875 5873 5872 5869 5867 5865 5863 5861 5859 5856 5855 5854 5852 5850 5846 5844 5843 5842 5841 5840 5840 5840 5838 5835 5831 5828 5827 5826 5826 5825 5825
5875 5876 5877 5879 5879 5881 5882 5883 5884 5883 5882 5881 5880 5879 5877 5876 5873 5872 5869 5865 5863 5860 5859 5858 5855 5853 5851 5850 5848 5846 5845 5843 5839 5837 5836 5834 5832 5831 5830 5830 5828 5827 5825 5824 5823 5820 5819 5818 5817
5870 5871 5872 5873 5873 5874 5876 5876 5877 5877 5877 5876 5874 5873 5871 5869 5867 5864 5861 5858 5856 5855 5853 5851 5847 5845 5843 5842 5841 5840 5837 5835 5832 5829 5827 5824 5822 5820 5820 5819 5817 5816 5815 5815 5815 5814 5813 5811 5811
5864 5865 5866 5868 5868 5868 5869 5870 5870 5870 5869 5869 5868 5866 5865 5863 5860 5857 5854 5852 5850 5849 5848 5845 5841 5839 5837 5835 5833 5832 5830 5827 5824 5821 5818 5816 5814 5811 5809 5808 5807 5806 5806 5805 5803 5802 5802 5802 5801
5861 5861 5862 5863 5863 5863 5863 5863 5863 5862 5861 5862 5861 5860 5859 5856 5853 5851 5849 5846 5843 5842 5840 5836 5834 5832 5830 5828 5826 5823 5821 5819 5816 5813 5810 5807 5804 5801 5799 5797 5797 5797 5795 5794 5793 5792 5791 5792 5792
5859 5860 5860 5860 5861 5860 5860 5858 5858 5856 5854 5855 5855 5854 5854 5851 5848 5846 5844 5841 5837 5835 5834 5831 5828 5826 5824 5822 5819 5817 5815 5812 5809 5806 5803 5799 5796 5793 5790 5788 5787 5787 5786 5785 5784 5783 5783 5782 5782
5857 5857 5856 5856 5855 5855 5855 5852 5853 5853 5851 5850 5850 5849 5848 5846 5844 5841 5839 5836 5833 5832 5830 5827 5825 5822 5820 5816 5813 5811 5809 5806 5802 5798 5794 5791 5787 5783 5779 5776 5775 5775 5774 5774 5774 5774 5773 5773 5772
5854 5853 5852 5851 5850 5849 5848 5847 5847 5848 5847 5846 5845 5844 5842 5840 5838 5836 5834 5832 5829 5827 5824 5822 5819 5816 5813 5810 5806 5803 5801 5798 5795 5792 5788 5783 5778 5772 5768 5764 5763 5763 5762 5762 5762 5763 5763 5762 5762
5852 5851 5850 5848 5847 5845 5843 5842 5844 5842 5841 5841 5840 5839 5837 5835 5834 5832 5829 5826 5823 5821 5819 5817 5815 5811 5808 5804 5801 5797 5795 5792 5789 5785 5781 5775 5770 5764 5757 5753 5752 5751 5750 5750 5750 5751 5752 5752 5752
5849 5848 5847 5845 5844 5842 5840 5839 5840 5838 5837 5837 5835 5833 5831 5830 5829 5827 5823 5820 5817 5815 5812 5810 5808 5805 5802 5799 5795 5791 5788 5785 5781 5777 5772 5766 5762 5756 5750 5745 5742 5741 5740 5739 5738 5739 5739 5740 5741
5846 5845 5844 5842 5840 5838 5838 5836 5835 5833 5833 5832 5830 5827 5825 5824 5822 5820 5817 5814 5812 5809 5806 5804 5802 5798 5793 5789 5785 5781 5778 5776 5773 5768 5765 5759 5754 5750 5743 5738 5735 5732 5731 5730 5729 5728 5727 5728 5729
5845 5843 5841 5838 5836 5834 5834 5832 5830 5830 5829 5827 5823 5821 5819 5817 5814 5812 5809 5806 5802 5799 5796 5793 5790 5786 5782 5779 5775 5771 5768 5767 5765 5762 5758 5753 5747 5742 5736 5731 5727 5723 5722 5720 5719 5718 5717 5717 5717
5842 5840 5838 5836 5833 5830 5828 5830 5828 5826 5823 5821 5818 5815 5812 5809 5805 5802 5799 5796 5793 5789 5785 5780 5777 5774 5771 5768 5766 5764 5760 5758 5756 5754 5751 5747 5742 5736 5730 5723 5719 5715 5712 5710 5709 5707 5706 5706 5706
5839 5837 5834 5832 5829 5826 5822 5824 5821 5819 5817 5814 5810 5806 5802 5798 5795 5791 5787 5784 5780 5776 5773 5769 5766 5763 5760 5758 5756 5753 5751 5749 5745 5744 5741 5739 5735 5730 5724 5718 5714 5710 5705 5702 5700 5697 5696 5695 5696